KB1DML-3 Weather Reports


time (UTC)temp
F
wind
direction
speed
knots
gust
knots
rain 1hr
in
rain 24hr
in
rain mn
in
humidity
%
barometer
mb
20260507210521 53 158 7.8 10.4 0.00 0.00 0.00 82
20260507210021 53 158 7.0 9.6 0.00 0.00 0.00 81
20260507205525 53 158 8.7 9.6 0.00 0.00 0.00 81
20260507205021 53 158 8.7 13.0 0.00 0.00 0.00 81
20260507204521 53 158 9.6 12.2 0.00 0.00 0.00 81
20260507204044 53 180 8.7 13.0 0.00 0.00 0.00 81
20260507203521 53 158 7.8 10.4 0.00 0.00 0.00 81
20260507203020 53 135 5.2 7.8 0.00 0.00 0.00 82
20260507202525 53 158 7.0 11.3 0.00 0.00 0.00 81
20260507200023 53 180 8.7 12.2 0.00 0.00 0.00 82
20260507195521 53 180 9.6 13.0 0.00 0.00 0.00 83
20260507195021 53 180 10.4 14.8 0.00 0.00 0.00 82
20260507194520 53 158 9.6 14.8 0.00 0.00 0.00 83
20260507194021 53 158 12.2 15.6 0.00 0.00 0.00 83
20260507193521 53 158 12.2 14.8 0.00 0.00 0.00 82
20260507193021 53 180 12.2 15.6 0.00 0.00 0.00 82
20260507192520 53 158 9.6 13.9 0.00 0.00 0.00 82
20260507191021 53 180 12.2 14.8 0.00 0.00 0.00 82
20260507190521 54 180 11.3 14.8 0.00 0.00 0.00 82
20260507190024 54 180 12.2 14.8 0.00 0.00 0.00 81
20260507185521 54 180 11.3 13.9 0.00 0.00 0.00 81
20260507185029 54 180 10.4 13.0 0.00 0.00 0.00 80
20260507184021 54 180 10.4 13.9 0.00 0.00 0.00 80
20260507183020 54 180 9.6 12.2 0.00 0.00 0.00 80
20260507182520 54 180 9.6 12.2 0.00 0.00 0.00 79
20260507182021 54 180 10.4 12.2 0.00 0.00 0.00 79
20260507181528 54 180 9.6 12.2 0.00 0.00 0.00 79
20260507181034 54 180 8.7 10.4 0.00 0.00 0.00 79
20260507180526 54 180 9.6 12.2 0.00 0.00 0.00 79
20260507180024 54 180 7.8 10.4 0.00 0.00 0.00 80
20260507175520 54 180 9.6 11.3 0.00 0.00 0.00 80
20260507175023 54 180 9.6 11.3 0.00 0.00 0.00 79
20260507174520 54 180 9.6 11.3 0.00 0.00 0.00 78
20260507174021 54 180 10.4 11.3 0.00 0.00 0.00 78
20260507173522 54 180 7.8 10.4 0.00 0.00 0.00 78
20260507173020 54 203 7.8 8.7 0.00 0.00 0.00 78
20260507172541 54 180 7.8 8.7 0.00 0.00 0.00 79
20260507172024 53 203 8.7 9.6 0.00 0.00 0.00 80
20260507171521 53 203 7.8 10.4 0.00 0.00 0.00 80
20260507171020 52 203 9.6 12.2 0.00 0.00 0.00 79
20260507170520 53 203 9.6 12.2 0.00 0.00 0.00 80
20260507170040 52 203 10.4 12.2 0.00 0.00 0.00 79
20260507165541 52 203 8.7 12.2 0.00 0.00 0.00 80
20260507165021 52 203 8.7 10.4 0.00 0.00 0.00 80
20260507164521 52 203 9.6 12.2 0.00 0.00 0.00 79
20260507164020 53 203 9.6 11.3 0.00 0.00 0.00 78
20260507163541 53 203 9.6 11.3 0.00 0.00 0.00 78
20260507163020 53 203 8.7 9.6 0.00 0.00 0.00 78
20260507162522 53 180 7.8 9.6 0.00 0.00 0.00 79
20260507162020 53 180 8.7 9.6 0.00 0.00 0.00 77
20260507161540 53 203 8.7 10.4 0.00 0.00 0.00 78
20260507161040 53 203 7.8 9.6 0.00 0.00 0.00 78
20260507160023 53 180 7.8 8.7 0.00 0.00 0.00 78
20260507155520 53 203 7.8 8.7 0.00 0.00 0.00 78
20260507155020 53 203 8.7 10.4 0.00 0.00 0.00 77
20260507154600 53 203 9.6 12.2 0.00 0.00 0.00 76
20260507154020 53 203 10.4 13.9 0.00 0.00 0.00 74
20260507153524 55 203 10.4 13.9 0.00 0.00 0.00 72
20260507153022 56 203 7.8 13.0 0.00 0.00 0.00 66
20260507152524 57 68 5.2 8.7 0.00 0.00 0.00 67
20260507152022 58 68 6.1 8.7 0.00 0.00 0.00 62
20260507151542 59 23 5.2 9.6 0.00 0.00 0.00 61
20260507151027 59 45 7.0 10.4 0.00 0.00 0.00 61
20260507150527 60 23 7.8 11.3 0.00 0.00 0.00 60
20260507150023 59 23 7.8 10.4 0.00 0.00 0.00 59
20260507145522 60 23 7.0 9.6 0.00 0.00 0.00 60
20260507145022 60 23 6.1 8.7 0.00 0.00 0.00 60
20260507144520 60 23 6.1 8.7 0.00 0.00 0.00 62
20260507144203 60 338 5.2 8.7 0.00 0.00 0.00 63
20260507143522 60 23 7.0 8.7 0.00 0.00 0.00 63
20260507143022 60 23 4.3 7.0 0.00 0.00 0.00 63
20260507142522 60 338 4.3 7.8 0.00 0.00 0.00 63
20260507142022 60 23 3.5 7.0 0.00 0.00 0.00 64
20260507141522 59 338 6.1 8.7 0.00 0.00 0.00 66
20260507141027 59 338 6.1 9.6 0.00 0.00 0.00 67
20260507140525 58 338 6.1 8.7 0.00 0.00 0.00 68
20260507140037 58 23 5.2 8.7 0.00 0.00 0.00 70
20260507135521 57 338 6.1 8.7 0.00 0.00 0.00 71
20260507134522 57 338 7.0 9.6 0.00 0.00 0.00 71
20260507134022 56 338 7.0 11.3 0.00 0.00 0.00 71
20260507133522 56 338 8.7 11.3 0.00 0.00 0.00 72
20260507133022 56 338 7.0 10.4 0.00 0.00 0.00 74
20260507132521 55 338 8.7 11.3 0.00 0.00 0.00 74
20260507132022 55 338 7.8 10.4 0.00 0.00 0.00 76
20260507131522 55 338 7.0 8.7 0.00 0.00 0.00 78
20260507131022 54 338 7.0 9.6 0.00 0.00 0.00 80
20260507130523 53 315 6.1 8.7 0.00 0.00 0.00 81
20260507130043 52 315 7.0 9.6 0.00 0.00 0.00 82
20260507125522 52 315 7.8 12.2 0.00 0.00 0.00 83
20260507125024 51 315 8.7 12.2 0.00 0.00 0.00 84
20260507124523 51 338 9.6 12.2 0.00 0.00 0.00 85
20260507124020 51 338 9.6 12.2 0.00 0.00 0.00 85
20260507123521 50 338 9.6 11.3 0.00 0.00 0.00 86
20260507123102 0 338 8.7 11.3 0.00 0.00 0.00
20260507122521 0 338 9.6 13.0 0.00 0.00 0.00
20260507122026 0 338 9.6 12.2 0.00 0.00 0.00
20260507121521 0 338 9.6 13.0 0.00 0.00 0.00
20260507121022 0 338 8.7 11.3 0.00 0.00 0.00
20260507120531 0 338 7.8 11.3 0.00 0.00 0.00
20260507120024 0 338 7.8 11.3 0.00 0.00 0.00
20260507115521 0 338 7.8 11.3 0.00 0.00 0.00
20260507115044 0 338 7.8 10.4 0.00 0.00 0.00
20260507114522 0 338 9.6 12.2 0.00 0.00 0.00
20260507114041 0 338 7.8 10.4 0.00 0.00 0.00
20260507113525 0 338 7.8 11.3 0.00 0.00 0.00
20260507113023 0 338 7.0 10.4 0.00 0.00 0.00
20260507112522 0 338 7.0 8.7 0.00 0.00 0.00
20260507111521 0 338 5.2 8.7 0.00 0.00 0.00
20260507111024 0 338 4.3 7.0 0.00 0.00 0.00
20260507110542 0 315 4.3 7.0 0.00 0.00 0.00
20260507110022 0 315 5.2 7.8 0.00 0.00 0.00
20260507105522 0 315 6.1 9.6 0.00 0.00 0.00
20260507105022 0 315 6.1 8.7 0.00 0.00 0.00
20260507104021 0 338 6.1 8.7 0.00 0.00 0.00
20260507103524 0 315 7.8 11.3 0.00 0.00 0.00
20260507103021 0 338 8.7 11.3 0.00 0.00 0.00
20260507102525 0 338 9.6 12.2 0.00 0.00 0.00
20260507102022 0 338 8.7 12.2 0.00 0.00 0.00
20260507101542 0 338 8.7 11.3 0.00 0.00 0.00
20260507101024 0 338 9.6 11.3 0.00 0.00 0.00
20260507100543 0 338 10.4 12.2 0.00 0.00 0.00
20260507100023 0 338 10.4 12.2 0.00 0.00 0.00
20260507095521 0 338 12.2 15.6 0.00 0.00 0.00
20260507095041 0 338 11.3 14.8 0.00 0.00 0.00
20260507094528 0 338 11.3 14.8 0.00 0.00 0.00
20260507094120 0 338 12.2 16.5 0.00 0.00 0.00
20260507093521 0 338 11.3 15.6 0.00 0.00 0.00
20260507093021 0 338 10.4 13.9 0.00 0.00 0.00
20260507092521 0 338 8.7 13.0 0.00 0.00 0.00
20260507092021 0 315 10.4 14.8 0.00 0.00 0.00
20260507091541 0 315 9.6 14.8 0.00 0.00 0.00
20260507091022 0 315 9.6 13.0 0.00 0.00 0.00
20260507090521 0 315 8.7 13.9 0.00 0.00 0.00
20260507090021 0 315 8.7 13.0 0.00 0.00 0.00
20260507085521 0 315 7.8 11.3 0.00 0.00 0.00
20260507084521 0 315 8.7 14.8 0.00 0.00 0.00
20260507084023 0 315 10.4 15.6 0.00 0.00 0.00
20260507083522 0 315 8.7 13.0 0.00 0.00 0.00
20260507083022 0 315 10.4 15.6 0.00 0.00 0.00
20260507082545 0 315 13.0 19.1 0.00 0.00 0.00
20260507081526 0 315 12.2 18.2 0.00 0.00 0.00
20260507081041 0 315 11.3 17.4 0.00 0.00 0.00
20260507080529 0 315 11.3 18.2 0.00 0.00 0.00
20260507080023 0 315 12.2 18.2 0.00 0.00 0.00
20260507075530 0 315 12.2 16.5 0.00 0.00 0.00
20260507075021 0 315 12.2 16.5 0.00 0.00 0.00
20260507074528 0 315 12.2 17.4 0.00 0.00 0.00
20260507074027 0 315 10.4 15.6 0.00 0.00 0.00
20260507073542 0 315 9.6 15.6 0.00 0.00 0.00
20260507073041 0 315 8.7 12.2 0.00 0.00 0.00
20260507072521 0 315 7.0 12.2 0.00 0.00 0.00
20260507072025 0 293 6.1 11.3 0.00 0.00 0.00
20260507071521 0 293 6.1 9.6 0.00 0.00 0.00
20260507071021 0 293 5.2 9.6 0.00 0.00 0.00
20260507070542 0 293 7.0 13.0 0.00 0.00 0.00
20260507070021 0 293 7.8 13.0 0.00 0.00 0.00
20260507065521 0 293 6.1 10.4 0.00 0.00 0.00
20260507065021 0 315 6.1 10.4 0.00 0.00 0.00
20260507064521 0 315 6.1 9.6 0.00 0.00 0.00
20260507064022 0 315 4.3 7.8 0.00 0.00 0.00
20260507063521 0 315 3.5 7.8 0.00 0.00 0.00
20260507063020 0 293 4.3 8.7 0.00 0.00 0.00
20260507062522 0 315 6.1 9.6 0.00 0.00 0.00
20260507062021 0 315 7.8 13.0 0.00 0.00 0.00
20260507061531 0 315 7.0 11.3 0.00 0.00 0.00
20260507061021 0 315 6.1 11.3 0.00 0.00 0.00
20260507060535 0 315 7.8 11.3 0.00 0.00 0.00
20260507060023 0 315 8.7 13.9 0.00 0.00 0.00
20260507055521 0 315 9.6 13.0 0.00 0.00 0.00
20260507055021 0 315 9.6 13.9 0.00 0.00 0.00
20260507054521 0 315 8.7 14.8 0.00 0.00 0.00
20260507054021 0 315 9.6 13.9 0.00 0.00 0.00
20260507053520 0 315 11.3 17.4 0.00 0.00 0.00
20260507053024 0 315 11.3 17.4 0.00 0.00 0.00
20260507052619 0 315 10.4 14.8 0.00 0.00 0.00
20260507052025 0 315 8.7 13.0 0.00 0.00 0.00
20260507051521 0 315 5.2 12.2 0.00 0.00 0.00
20260507051021 0 270 4.3 7.0 0.00 0.00 0.00
20260507050521 0 248 7.0 8.7 0.00 0.00 0.00
20260507050044 0 248 7.0 8.7 0.00 0.00 0.00
20260507045520 0 270 7.0 10.4 0.00 0.00 0.00
20260507045043 0 270 9.6 13.0 0.00 0.00 0.00
20260507044520 0 270 8.7 11.3 0.00 0.00 0.00
20260507044059 0 248 8.7 12.2 0.00 0.00 0.00
20260507043024 0 225 8.7 11.3 0.00 0.00 0.00
20260507042520 0 248 8.7 13.0 0.00 0.00 0.00
20260507042021 0 225 10.4 13.9 0.00 0.00 0.00
20260507041545 0 225 9.6 13.9 0.00 0.00 0.00
20260507041021 0 225 7.0 13.9 0.00 0.00 0.00
20260507040539 0 225 7.8 12.2 0.00 0.00 0.00
20260507040028 0 225 7.8 13.0 0.00 0.00 0.00
20260507035542 0 248 9.6 13.0 0.00 0.00 0.00
20260507035021 0 248 9.6 13.0 0.00 0.00 0.00
20260507034021 0 248 10.4 13.0 0.00 0.00 0.00
20260507033521 0 248 10.4 13.0 0.00 0.00 0.00
20260507033042 0 225 11.3 13.9 0.00 0.00 0.00
20260507032022 0 225 11.3 13.9 0.00 0.00 0.00
20260507031526 0 225 11.3 14.8 0.00 0.00 0.00
20260507031021 0 225 11.3 15.6 0.00 0.00 0.00
20260507030541 0 225 12.2 15.6 0.00 0.00 0.00
20260507030025 0 225 12.2 15.6 0.00 0.00 0.00
20260507024521 0 248 11.3 16.5 0.00 0.00 0.00
20260507024024 0 225 11.3 14.8 0.00 0.00 0.00
20260507023524 0 225 10.4 14.8 0.00 0.00 0.00
20260507023021 0 225 8.7 13.9 0.00 0.00 0.00
20260507022541 0 225 7.8 13.0 0.00 0.00 0.00
20260507022021 0 225 10.4 13.9 0.00 0.00 0.00
20260507021522 0 225 10.4 14.8 0.00 0.00 0.00
20260507021022 0 225 8.7 13.0 0.00 0.00 0.00
20260507015525 0 225 9.6 13.9 0.00 0.00 0.00
20260507015023 0 225 8.7 13.0 0.00 0.00 0.00
20260507014521 0 225 8.7 13.9 0.00 0.00 0.00
20260507014021 0 225 8.7 13.0 0.00 0.00 0.00
20260507013606 0 225 7.8 13.0 0.00 0.00 0.00
20260507013021 0 225 8.7 13.9 0.00 0.00 0.00
20260507012523 0 225 8.7 13.9 0.00 0.00 0.00
20260507012021 0 225 10.4 15.6 0.00 0.00 0.00
20260507011521 0 225 11.3 15.6 0.00 0.00 0.00
20260507011059 0 225 10.4 15.6 0.00 0.00 0.00
20260507010521 0 225 11.3 15.6 0.00 0.00 0.00
20260507010022 0 225 12.2 16.5 0.00 0.00 0.00
20260507003521 0 203 15.6 19.1 0.00 0.00 0.00
20260507003023 0 203 15.6 18.2 0.00 0.00 0.00
20260507002521 0 203 15.6 19.1 0.00 0.00 0.00
20260507002021 0 203 15.6 18.2 0.00 0.00 0.00
20260507001521 0 203 16.5 19.1 0.00 0.00 0.00
20260507001021 0 203 16.5 19.1 0.00 0.00 0.00
20260507000523 0 203 17.4 21.7 0.00 0.00 0.00
20260507000023 0 203 17.4 20.0 0.00 0.00 0.00
20260506235521 0 203 18.2 23.5 0.00 0.00 0.00
20260506235021 0 203 16.5 19.1 0.00 0.00 0.00
20260506234559 0 203 16.5 20.0 0.00 0.00 0.00
20260506234021 0 203 16.5 19.1 0.00 0.00 0.00
20260506233544 0 203 15.6 18.2 0.00 0.00 0.00
20260506233021 0 203 16.5 19.1 0.00 0.00 0.00
20260506232521 0 203 18.2 21.7 0.00 0.00 0.00
20260506232021 0 203 18.2 20.9 0.00 0.00 0.00
20260506231602 0 203 19.1 22.6 0.00 0.00 0.00
20260506231100 0 203 20.0 26.1 0.00 0.00 0.00
20260506230542 0 203 19.1 23.5 0.00 0.00 0.00
20260506230022 0 203 18.2 20.0 0.00 0.00 0.00
20260506225521 0 203 18.2 21.7 0.00 0.00 0.00
20260506225021 0 203 18.2 20.9 0.00 0.00 0.00
20260506224521 0 203 18.2 21.7 0.00 0.00 0.00
20260506224023 53 203 17.4 20.9 0.00 0.00 0.00 93
20260506223522 53 203 17.4 20.9 0.00 0.00 0.00 93
20260506223020 53 203 16.5 18.2 0.00 0.00 0.00 93
20260506222521 53 203 16.5 20.0 0.00 0.00 0.00 93
20260506222021 54 203 17.4 20.0 0.00 0.00 0.00 92
20260506221521 54 203 17.4 20.0 0.00 0.00 0.00 92
20260506221041 54 203 17.4 21.7 0.00 0.00 0.00 92
20260506220540 54 203 18.2 21.7 0.00 0.00 0.00 92
20260506220043 54 203 17.4 20.9 0.00 0.00 0.00 92
20260506215559 54 203 17.4 20.9 0.00 0.00 0.00 92
20260506214557 54 203 18.2 21.7 0.00 0.00 0.00 92
20260506214040 54 203 19.1 22.6 0.00 0.00 0.00 91
20260506213521 54 203 19.1 23.5 0.00 0.00 0.00 91
20260506213021 54 203 19.1 22.6 0.00 0.00 0.00 91
20260506212520 54 203 20.0 25.2 0.00 0.00 0.00 91
20260506212023 55 203 20.0 24.3 0.00 0.00 0.00 91
20260506211542 54 203 19.1 25.2 0.00 0.00 0.00 90
20260506211021 55 203 19.1 22.6 0.00 0.00 0.00 90